sat.trackr.live / text

‹ back to catalog

STARLINK-32647

NORAD 62200 · 2024-229J

PAYLOAD ACTIVE UNKNOWN

§ Identity

Operator
Country
US
Launch date
2024-12-04
Launch site
AFETR
Launch vehicle
Mass (kg)
RCS (m²)

Purposes: comms

External: N2YO · Heavens-Above · Gunter

§ Orbital elements

Epoch: 2026-09-21T00:30:19.957248Z

Period
94.27 min
Inclination
43.0007°
Eccentricity
0.0001445
Mean motion
15.27587444 rev/d
Perigee alt
482.0 km
Apogee alt
484.0 km
Semi-major
6,861.2 km
B*
3.4585e-4
RAAN
247.6839°
Arg perigee
265.1560°
Mean anomaly
94.9127°
Rev number
10,043

§ Raw data

STARLINK-326471 62200U 24229J   26264.02106432  .00009269  00000+0  34585-3 0  99902 62200  43.0007 247.6839 0001445 265.1560  94.9127 15.27587444100431

JSON: /api/v1/satellites/62200 · /tle

For live sub-satellite position, see the globe view (requires WebGL).

§ Visibility from observer

Set your observer location to see the next 7 days of passes ≥ 10°. The values pass through the URL so the page stays shareable.

No JS? Fill the form by hand. The geolocation button needs JavaScript.